Weather History for KLBT - June, 2012

Change the Weather History Date:

Tuesday, June 5, 2012

  Actual Average Record
Temperature  
Mean Temperature 70 °F 76 °F  
Max Temperature 78 °F 87 °F 98 °F (2008)
Min Temperature 61 °F 65 °F 58 °F (2006)
Degree Days  
Heating Degree Days 0 0  
Month to date heating degree days 0 0  
Since 1 June heating degree days 0 0  
Since 1 July heating degree days 2138 2761  
Cooling Degree Days 5 11  
Month to date cooling degree days 38 51  
Year to date cooling degree days 444 301  
Since 1 June cooling degree days 38 51  
Growing Degree Days 21 (Base 50)    
Moisture  
Dew Point 60 °F    
Average Humidity 70    
Maximum Humidity 93    
Minimum Humidity 47    
Precipitation  
Precipitation 0.05 in 0.17 in 0.50 in (2000)
Month to date precipitation 0.23 0.85  
Year to date precipitation 17.26 15.92  
Sea Level Pressure  
Sea Level Pressure 29.79 in    
Wind  
Wind Speed 6 mph (NE)    
Max Wind Speed 18 mph    
Max Gust Speed 24 mph    
Visibility 10 miles    
Events Rain    
T = Trace of Precipitation, MM = Missing Value Source: NWS Daily Summary

Daily Weather History Graph

Daily Weather History Graph

Search for Another Location

Airport or City:

Trip Planner

Search our weather history database for the weather conditions in past years. The results will help you decide how hot, cold, wet, or windy it might be!

Date:

Astronomy

Jun. 05, 2012 Rise Set
Actual Time 6:03 AM EDT 8:26 PM EDT
Civil Twilight 5:34 AM EDT 8:55 PM EDT
Nautical Twilight 4:58 AM EDT 9:31 PM EDT
Astronomical Twilight 4:19 AM EDT 10:11 PM EDT
Moon 9:51 PM EDT (6/5) 7:12 AM EDT (6/5)
Length of Visible Light 15h 21m
Length of Day
14h 23m
Full, 98% of the Moon is Illuminated
Jun 5
Full
Jun 11
Last Quarter
Jun 19
New
Jun 26
First Quarter
Jul 3
Full

Hourly Weather History & Observations

Time (EDT) Temp. Dew Point Humidity Pressure Visibility Wind Dir Wind Speed Gust Speed Precip Events Conditions
1:54 AM 69.1 °F 66.9 °F 93% 29.67 in 9.0 mi WNW 3.5 mph - N/A   Overcast
2:54 AM 69.1 °F 66.9 °F 93% 29.68 in 10.0 mi NNW 5.8 mph - N/A   Overcast
3:54 AM 68.0 °F 60.1 °F 76% 29.70 in 10.0 mi NNE 9.2 mph - N/A   Mostly Cloudy
4:54 AM 66.9 °F 59.0 °F 76% 29.71 in 10.0 mi NE 8.1 mph - N/A   Clear
5:54 AM 66.0 °F 59.0 °F 78% 29.70 in 10.0 mi ENE 5.8 mph - N/A   Clear
6:54 AM 66.0 °F 60.1 °F 81% 29.75 in 10.0 mi North 4.6 mph - N/A   Overcast
7:54 AM 64.0 °F 61.0 °F 90% 29.77 in 10.0 mi NE 6.9 mph - 0.02 in   Scattered Clouds
9:54 AM 64.9 °F 62.1 °F 90% 29.81 in 7.0 mi North 5.8 mph - 0.02 in Rain Light Rain
10:54 AM 64.9 °F 62.1 °F 90% 29.80 in 10.0 mi NE 6.9 mph - 0.01 in Rain Light Rain
11:54 AM 66.0 °F 61.0 °F 84% 29.80 in 10.0 mi NE 8.1 mph - 0.00 in   Partly Cloudy
12:54 PM 71.1 °F 60.1 °F 68% 29.81 in 10.0 mi ENE 5.8 mph - N/A   Clear
1:54 PM 73.9 °F 57.9 °F 57% 29.81 in 10.0 mi NE 4.6 mph - N/A   Overcast
2:54 PM 73.9 °F 57.9 °F 57% 29.82 in 10.0 mi Calm Calm - N/A   Overcast
3:54 PM 75.0 °F 57.0 °F 53% 29.81 in 10.0 mi NE 5.8 mph - N/A   Mostly Cloudy
4:54 PM 78.1 °F 57.0 °F 48% 29.80 in 10.0 mi NNE 5.8 mph - N/A   Scattered Clouds
5:54 PM 77.0 °F 55.0 °F 47% 29.82 in 10.0 mi ENE 4.6 mph - N/A   Clear
6:54 PM 75.0 °F 55.9 °F 51% 29.81 in 10.0 mi East 6.9 mph - N/A   Clear
7:54 PM 73.0 °F 57.9 °F 59% 29.82 in 10.0 mi Calm Calm - N/A   Scattered Clouds
8:54 PM 68.0 °F 57.9 °F 70% 29.85 in 10.0 mi East 10.4 mph 19.6 mph N/A   Mostly Cloudy
9:54 PM 64.9 °F 57.9 °F 78% 29.88 in 10.0 mi East 4.6 mph - N/A   Partly Cloudy
10:54 PM 64.9 °F 57.9 °F 78% 29.90 in 10.0 mi East 5.8 mph - N/A   Overcast
11:54 PM 62.1 °F 59.0 °F 90% 29.91 in 10.0 mi ENE 6.9 mph - N/A   Clear